Regional Weather Roundup
Issued by NWS

Home | Current Version | Previous Version | Text Only | Print | Product List | Glossary Off
Versions: 1 2 3 4 5 6 7 8 9 10 11 12 13 14 15 16 17 18 19 20 21 22 23 24 25 26 27 28 29 30 31 32 33 34 35 36 37 38 39 40 41 42 43 44 45 46 47 48 49 50

000
ASUS45 KCYS 110010
RWRWY

WYOMING REGIONAL WEATHER ROUNDUP
NATIONAL WEATHER SERVICE CHEYENNE WY
600 PM MDT THU JUL 10 2014

NOTE:  "FAIR" INDICATES FEW OR NO CLOUDS BELOW 12,000 FEET
WITH NO SIGNIFICANT WEATHER AND/OR OBSTRUCTIONS TO VISIBILITY.

WYZ001-110100-
YELLOWSTONE NATIONAL PARK

CITY           SKY/WX    TMP DP  RH WIND       PRES   REMARKS
LK YELLOWSTONE   N/A     72  38  29 VRB5      30.20F
6HR MIN TEMP:  58; 6HR MAX TEMP:  73; 6HR PCP:  0.11;

W YELLOWSTONE  NOT AVBL

$$
WYZ002>013-054>058-071-098>099-110100-
NORTHERN WYOMING

CITY           SKY/WX    TMP DP  RH WIND       PRES   REMARKS
JACKSON        NOT AVBL
CODY           PTSUNNY   77  57  50 E12       29.97F
GREYBULL       CLOUDY    83  48  29 NW25G36   29.90R
6HR MIN TEMP:  75; 6HR MAX TEMP:  88; 6HR PCP: TRACE;

WORLAND        PTSUNNY   78  60  53 S9        29.89F
SHERIDAN       CLOUDY    79  58  48 S9        29.90F
6HR MIN TEMP:  79; 6HR MAX TEMP:  88;

BUFFALO        CLOUDY    79  53  40 N7        29.99F
6HR MIN TEMP:  75; 6HR MAX TEMP:  84; 6HR PCP: TRACE;

GILLETTE       PTSUNNY   85  51  31 NW3       29.93S
6HR MIN TEMP:  77; 6HR MAX TEMP:  86;

HULETT         FAIR      82  57  42 MISG      29.93
NEWCASTLE      FAIR      82  45  26 MISG      29.91

$$
WYZ014>020-022>026-101>103-110100-
CENTRAL WYOMING

CITY           SKY/WX    TMP DP  RH WIND       PRES   REMARKS
BIG PINEY      MOSUNNY   78  47  33 VRB7G21   30.14F
6HR MIN TEMP:  74; 6HR MAX TEMP:  80;

PINEDALE       CLEAR     73  43  33 NW15G21   30.16F
DUBOIS         FAIR      72  46  40 NW8       30.13F
LANDER         MOSUNNY   84  49  29 N10       30.00S
6HR MIN TEMP:  75; 6HR MAX TEMP:  87; 6HR PCP: TRACE;

RIVERTON       MOSUNNY   83  48  29 N12       30.01F
6HR MIN TEMP:  79; 6HR MAX TEMP:  86; 6HR PCP: TRACE;

CASPER         LGT RAIN  72  56  57 S8        30.02S
6HR MIN TEMP:  67; 6HR MAX TEMP:  89; 6HR PCP:  0.01;

DOUGLAS        HVY RAIN  69  62  78 N8        30.03R
6HR MIN TEMP:  68; 6HR MAX TEMP:  93; 6HR PCP:  0.41;


$$
WYZ021-027>030-104>119-110100-
SOUTHERN WYOMING

CITY           SKY/WX    TMP DP  RH WIND       PRES   REMARKS
EVANSTON       CLOUDY    73  49  42 NE9       30.14S
6HR MIN TEMP:  69; 6HR MAX TEMP:  80; 6HR PCP: TRACE;

KEMMERER       MOCLDY    79  45  29 NW9       30.16S
FORT BRIDGER   MOCLDY    70  57  62 SE16G22   30.19S
ROCK SPRINGS   CLOUDY    68  56  65 W14       30.16R
6HR MIN TEMP:  64; 6HR MAX TEMP:  85; 6HR PCP:  0.06;

DIXON          RAIN      74  53  48 NW12      30.13R
RAWLINS        CLOUDY    77  44  30 SW13      30.11R
6HR MIN TEMP:  75; 6HR MAX TEMP:  86; 6HR PCP: TRACE;

SARATOGA       MOCLDY    73  50  43 W9        30.13S
LARAMIE        PTSUNNY   76  46  34 SE14      30.12F
6HR MIN TEMP:  74; 6HR MAX TEMP:  83; 6HR PCP: TRACE;

CHEYENNE       PTSUNNY   86  43  22 S13       30.03F
6HR MIN TEMP:  81; 6HR MAX TEMP:  90; 6HR PCP: TRACE;

TORRINGTON     PTSUNNY   81  58  45 NW6       29.88F
6HR MIN TEMP:  72; 6HR MAX TEMP:  98; 6HR PCP:  0.08;


$$


USA.gov is the U.S. government's official web portal to all federal, state and local government web resources and services.